Weather History for West Palm Beach, FL

Change the Weather History Date:

Saturday, September 7, 2013

  Actual Average Record
Temperature  
Mean Temperature 79 °F 82 °F  
Max Temperature 86 °F 89 °F 95 °F (1962)
Min Temperature 72 °F 75 °F 68 °F (1920)
Degree Days  
Heating Degree Days 0 0  
Month to date heating degree days 0 0  
Since 1 July heating degree days 0 0  
Cooling Degree Days 14 17  
Month to date cooling degree days 132 119  
Year to date cooling degree days 3016 2825  
Growing Degree Days 29 (Base 50)    
Moisture  
Dew Point 73 °F    
Average Humidity 76    
Maximum Humidity 91    
Minimum Humidity 61    
Precipitation  
Precipitation 0.55 in 0.28 in 6.47 in (1931)
Month to date precipitation 1.08 1.98  
Year to date precipitation 48.70 42.70  
Snow  
Snow 0.00 in - - ()
Month to date snowfall 0.0  
Since 1 July snowfall 0.0  
Since 1 September snowfall 0.0  
Snow Depth 0.00 in    
Sea Level Pressure  
Sea Level Pressure 29.95 in    
Wind  
Wind Speed 5 mph (North)    
Max Wind Speed 17 mph    
Max Gust Speed 24 mph    
Visibility 9 miles    
Events Rain , Thunderstorm    
T = Trace of Precipitation, MM = Missing Value Source: NWS Daily Summary

Daily Weather History Graph

Daily Weather History Graph

Search for Another Location

Airport:

Trip Planner

Search our weather history database for the weather conditions in past years. The results will help you decide how hot, cold, wet, or windy it might be!

Date:

Astronomy

Sep. 07, 2013 Rise Set
Actual Time 7:02 AM EDT 7:33 PM EDT
Civil Twilight 6:39 AM EDT 7:56 PM EDT
Nautical Twilight 6:11 AM EDT 8:24 PM EDT
Astronomical Twilight 5:44 AM EDT 8:51 PM EDT
Moon 8:57 AM EDT (9/7) 8:50 PM EDT (9/7)
Length of Visible Light 13h 17m
Length of Day
12h 30m
Waxing Crescent, 5% of the Moon is Illuminated
Sep 7
Waxing Crescent
Sep 12
First Quarter
Sep 19
Full
Sep 26
Last Quarter
Oct 4
New

Hourly Weather History & Observations

Time (EDT) Temp. Heat Index Dew Point Humidity Pressure Visibility Wind Dir Wind Speed Gust Speed Precip Events Conditions
12:36 AM 82.4 °F 89.5 °F 75.2 °F 79% 29.97 in 10.0 mi Calm Calm - N/A Thunderstorm Thunderstorm
12:53 AM 83.5 °F 91.9 °F 76.1 °F 78% 29.97 in 10.0 mi ENE 3.5 mph - N/A Thunderstorm Thunderstorm
1:44 AM 78.8 °F - 73.4 °F 83% 29.96 in 4.0 mi ESE 10.4 mph 18.4 mph 0.00 in Rain , Thunderstorm Thunderstorms and Rain
1:53 AM 77.2 °F - 71.1 °F 81% 29.96 in 8.0 mi Variable 4.6 mph - 0.10 in Rain , Thunderstorm Light Thunderstorms and Rain
2:11 AM 77.0 °F - 73.4 °F 89% 29.94 in 10.0 mi Calm Calm - 0.04 in Rain , Thunderstorm Light Thunderstorms and Rain
2:32 AM 77.0 °F - 73.4 °F 89% 29.95 in 10.0 mi Calm Calm - 0.04 in   Mostly Cloudy
2:53 AM 78.4 °F - 73.6 °F 85% 29.94 in 10.0 mi Calm Calm - 0.04 in   Mostly Cloudy
3:53 AM 79.0 °F - 75.0 °F 88% 29.94 in 10.0 mi Calm Calm - N/A   Mostly Cloudy
4:53 AM 78.4 °F - 75.0 °F 89% 29.94 in 10.0 mi NW 9.2 mph - N/A   Mostly Cloudy
5:07 AM 78.8 °F - 75.2 °F 89% 29.93 in 8.0 mi NNW 11.5 mph - 0.01 in Rain , Thunderstorm Thunderstorms and Rain
5:27 AM 77.0 °F - 73.4 °F 89% 29.94 in 1.0 mi North 6.9 mph - 0.15 in Rain , Thunderstorm Heavy Thunderstorms and Rain
5:53 AM 76.1 °F - 70.0 °F 81% 29.96 in 4.0 mi NE 12.7 mph 23.0 mph 0.31 in Rain , Thunderstorm Heavy Thunderstorms and Rain
6:27 AM 77.0 °F - 71.6 °F 83% 29.96 in 10.0 mi North 4.6 mph - 0.02 in Rain , Thunderstorm Light Thunderstorms and Rain
6:53 AM 77.0 °F - 72.1 °F 85% 29.95 in 10.0 mi Calm Calm - 0.03 in Thunderstorm Thunderstorm
7:30 AM 75.2 °F - 73.4 °F 94% 29.95 in 10.0 mi NNW 3.5 mph - N/A   Mostly Cloudy
7:53 AM 76.6 °F - 73.6 °F 90% 29.95 in 10.0 mi Calm Calm - N/A   Mostly Cloudy
8:53 AM 79.3 °F - 75.0 °F 87% 29.97 in 10.0 mi Calm Calm - N/A   Mostly Cloudy
9:53 AM 83.3 °F 92.4 °F 76.8 °F 81% 29.97 in 10.0 mi NE 9.2 mph - N/A   Mostly Cloudy
10:53 AM 84.9 °F 92.5 °F 74.3 °F 70% 29.99 in 10.0 mi ENE 6.9 mph - N/A   Mostly Cloudy
11:53 AM 84.9 °F 91.4 °F 73.0 °F 67% 29.99 in 10.0 mi ENE 9.2 mph - N/A   Mostly Cloudy
12:17 PM 84.2 °F 90.9 °F 73.4 °F 70% 29.98 in 10.0 mi ENE 5.8 mph - N/A   Mostly Cloudy
12:53 PM 84.9 °F 91.4 °F 73.0 °F 67% 29.98 in 10.0 mi NE 10.4 mph - N/A   Mostly Cloudy
1:53 PM 86.0 °F 91.5 °F 71.1 °F 61% 29.96 in 10.0 mi East 8.1 mph - N/A   Mostly Cloudy
2:14 PM 84.2 °F 89.6 °F 71.6 °F 66% 29.95 in 10.0 mi East 10.4 mph - N/A Thunderstorm Thunderstorm
2:53 PM 82.9 °F 88.0 °F 72.0 °F 69% 29.97 in 10.0 mi South 5.8 mph - N/A Thunderstorm Thunderstorm
3:53 PM 75.9 °F - 72.0 °F 87% 29.97 in 10.0 mi NW 11.5 mph - 0.00 in Thunderstorm Thunderstorm
4:53 PM 75.0 °F - 71.1 °F 87% 29.94 in 10.0 mi NW 4.6 mph - 0.07 in Rain , Thunderstorm Light Thunderstorms and Rain
5:15 PM 75.2 °F - 69.8 °F 83% 29.92 in 10.0 mi NNW 5.8 mph - 0.00 in Rain Light Rain
5:53 PM 75.9 °F - 70.0 °F 82% 29.91 in 10.0 mi North 3.5 mph - 0.00 in   Mostly Cloudy
6:53 PM 77.0 °F - 71.1 °F 82% 29.92 in 10.0 mi NNW 3.5 mph - N/A   Mostly Cloudy
7:53 PM 75.9 °F - 72.0 °F 87% 29.92 in 10.0 mi SW 3.5 mph - N/A   Mostly Cloudy
8:53 PM 75.9 °F - 72.0 °F 87% 29.95 in 10.0 mi West 4.6 mph - N/A   Mostly Cloudy
9:53 PM 75.0 °F - 71.1 °F 87% 29.96 in 10.0 mi WNW 4.6 mph - N/A   Mostly Cloudy
10:53 PM 75.0 °F - 71.1 °F 87% 29.95 in 10.0 mi NNW 4.6 mph - N/A   Mostly Cloudy
11:53 PM 76.5 °F - 72.5 °F 87% 29.95 in 10.0 mi NNW 6.9 mph - N/A   Scattered Clouds